JZR301 OKKK-VABB

Flight info

Callsign JZR301
Flight time 3h 22m
Altitude 35000
Route OKKK/33R N0459F370 SESR4F SESRU M677 OBNET DCT TONVO P307 VAXIM L301 KARKU M638 EXOLU POKO2A VABB/27
Aircraft A321/M-SDFGHIRWY/C

Departure

Time 2026-05-06 19:05
Airport Kuwait International Airport (OKKK)

Arrival

Time 2026-05-06 22:27
Airport Chhatrapati Shivaji Maharaj International Airport (VABB)
Time Latitude Longitude Altitude Speed Heading
2026-05-06 18:18 29.23844 47.96911 154 ft 0 kts 332°
2026-05-06 18:44 29.23827 47.96921 154 ft 3 kts 332°
2026-05-06 18:44 29.23811 47.96931 154 ft 3 kts 332°
2026-05-06 18:45 29.23794 47.96939 155 ft 3 kts 12°
2026-05-06 18:45 29.23782 47.96930 155 ft 1 kts 64°
2026-05-06 18:45 29.23782 47.96929 155 ft 0 kts 64°
2026-05-06 18:49 29.23787 47.96940 155 ft 8 kts 63°
2026-05-06 18:49 29.23777 47.97022 156 ft 14 kts 131°
2026-05-06 18:50 29.23675 47.97085 157 ft 26 kts 154°
2026-05-06 18:50 29.23578 47.97149 159 ft 10 kts 178°
2026-05-06 18:50 29.23505 47.97060 157 ft 19 kts 250°
2026-05-06 18:50 29.23447 47.96916 156 ft 20 kts 245°
2026-05-06 18:51 29.23387 47.96778 155 ft 12 kts 225°
2026-05-06 18:51 29.23327 47.96787 156 ft 13 kts 154°
2026-05-06 18:51 29.23210 47.96851 157 ft 21 kts 155°
2026-05-06 18:51 29.23074 47.96920 159 ft 27 kts 156°
2026-05-06 18:52 29.22854 47.97034 161 ft 40 kts 155°
2026-05-06 18:52 29.22608 47.97169 165 ft 39 kts 154°
2026-05-06 18:52 29.22401 47.97279 167 ft 15 kts 158°
2026-05-06 18:52 29.22362 47.97297 168 ft 0 kts 158°
2026-05-06 19:02 29.22355 47.97300 168 ft 8 kts 156°
2026-05-06 19:02 29.22216 47.97376 170 ft 26 kts 154°
2026-05-06 19:02 29.22054 47.97467 172 ft 26 kts 154°
2026-05-06 19:02 29.21895 47.97548 173 ft 24 kts 156°
2026-05-06 19:03 29.21740 47.97630 175 ft 29 kts 154°
2026-05-06 19:03 29.21523 47.97746 178 ft 35 kts 155°
2026-05-06 19:03 29.21317 47.97855 181 ft 18 kts 165°
2026-05-06 19:03 29.21260 47.97840 181 ft 8 kts 222°
2026-05-06 19:04 29.21235 47.97781 181 ft 8 kts 264°
2026-05-06 19:04 29.21257 47.97723 180 ft 9 kts 301°
2026-05-06 19:04 29.21298 47.97649 179 ft 13 kts 303°
2026-05-06 19:04 29.21390 47.97565 177 ft 32 kts 334°
2026-05-06 19:05 29.21868 47.97318 171 ft 121 kts 335°
2026-05-06 19:05 29.22883 47.96781 162 ft 193 kts 335°
2026-05-06 19:05 29.24106 47.96097 903 ft 198 kts 334°
2026-05-06 19:05 29.25389 47.95371 1610 ft 219 kts 335°
2026-05-06 19:06 29.26827 47.94534 2239 ft 245 kts 335°
2026-05-06 19:06 29.28457 47.93577 2761 ft 282 kts 335°
2026-05-06 19:06 29.30265 47.92512 3303 ft 299 kts 334°
2026-05-06 19:06 29.32157 47.91425 3751 ft 300 kts 336°
2026-05-06 19:07 29.34024 47.90646 4194 ft 276 kts 347°
2026-05-06 19:07 29.35285 47.90573 4520 ft 278 kts
2026-05-06 19:07 29.37532 47.92042 5189 ft 291 kts 51°
2026-05-06 19:07 29.38573 47.94063 5694 ft 299 kts 64°
2026-05-06 19:08 29.39484 47.96248 6195 ft 306 kts 65°
2026-05-06 19:08 29.40421 47.98457 6691 ft 311 kts 64°
2026-05-06 19:08 29.41402 48.00677 7177 ft 313 kts 63°
2026-05-06 19:08 29.42409 48.02900 7673 ft 315 kts 63°
2026-05-06 19:09 29.43219 48.05236 8170 ft 316 kts 77°
2026-05-06 19:09 29.43404 48.07709 8676 ft 316 kts 97°
2026-05-06 19:09 29.42903 48.10151 9190 ft 315 kts 111°
2026-05-06 19:09 29.42129 48.12511 9724 ft 318 kts 114°
2026-05-06 19:10 29.41304 48.14876 10208 ft 321 kts 114°
2026-05-06 19:10 29.40474 48.17261 10691 ft 324 kts 114°
2026-05-06 19:10 29.39628 48.19711 11059 ft 340 kts 114°
2026-05-06 19:10 29.38736 48.22302 11406 ft 358 kts 114°
2026-05-06 19:11 29.37806 48.25020 11744 ft 375 kts 114°
2026-05-06 19:11 29.36837 48.27856 12094 ft 389 kts 114°
2026-05-06 19:11 29.35838 48.30784 12435 ft 400 kts 114°
2026-05-06 19:11 29.34816 48.33782 12791 ft 406 kts 113°
2026-05-06 19:12 29.33783 48.36811 13148 ft 409 kts 113°
2026-05-06 19:12 29.32745 48.39851 13497 ft 411 kts 114°
2026-05-06 19:12 29.31712 48.42871 13834 ft 413 kts 114°
2026-05-06 19:12 29.30657 48.45956 14156 ft 415 kts 114°
2026-05-06 19:13 29.29600 48.49043 14467 ft 417 kts 114°
2026-05-06 19:13 29.28537 48.52142 14798 ft 419 kts 114°
2026-05-06 19:13 29.27464 48.55267 15134 ft 422 kts 114°
2026-05-06 19:13 29.26387 48.58402 15462 ft 424 kts 114°
2026-05-06 19:14 29.25669 48.60488 15687 ft 426 kts 114°
2026-05-06 19:14 29.24579 48.63657 16026 ft 429 kts 114°
2026-05-06 19:14 29.23480 48.66845 16364 ft 432 kts 114°
2026-05-06 19:14 29.22012 48.71105 16829 ft 436 kts 114°
2026-05-06 19:15 29.20892 48.74349 17182 ft 440 kts 114°
2026-05-06 19:15 29.20129 48.76559 17422 ft 442 kts 114°
2026-05-06 19:15 29.18627 48.80904 17903 ft 446 kts 114°
2026-05-06 19:15 29.17482 48.84212 18255 ft 449 kts 114°
2026-05-06 19:16 29.16704 48.86419 18457 ft 450 kts 116°
2026-05-06 19:16 29.15311 48.89612 18776 ft 449 kts 124°
2026-05-06 19:16 29.13498 48.92506 19093 ft 445 kts 135°
2026-05-06 19:16 29.11348 48.95036 19422 ft 443 kts 141°
2026-05-06 19:17 29.09069 48.97397 19755 ft 443 kts 143°
2026-05-06 19:17 29.06720 48.99682 20089 ft 443 kts 144°
2026-05-06 19:17 29.04344 49.01937 20425 ft 444 kts 145°
2026-05-06 19:17 29.01956 49.04195 20768 ft 445 kts 145°
2026-05-06 19:18 28.99569 49.06466 21115 ft 446 kts 145°
2026-05-06 19:18 28.97218 49.08720 21444 ft 447 kts 144°
2026-05-06 19:18 28.94836 49.11020 21799 ft 448 kts 144°
2026-05-06 19:18 28.92447 49.13336 22157 ft 451 kts 144°
2026-05-06 19:19 28.90054 49.15659 22524 ft 453 kts 144°
2026-05-06 19:19 28.87647 49.18004 22888 ft 456 kts 143°
2026-05-06 19:19 28.85253 49.20404 23267 ft 459 kts 143°
2026-05-06 19:19 28.82869 49.22845 23607 ft 462 kts 142°
2026-05-06 19:20 28.80469 49.25321 23905 ft 466 kts 143°
2026-05-06 19:20 28.78050 49.27819 24223 ft 470 kts 143°
2026-05-06 19:20 28.75616 49.30329 24554 ft 473 kts 143°
2026-05-06 19:20 28.73168 49.32849 24859 ft 476 kts 143°
2026-05-06 19:21 28.70734 49.35347 25184 ft 478 kts 143°
2026-05-06 19:21 28.68251 49.37889 25511 ft 480 kts 143°
2026-05-06 19:21 28.65760 49.40436 25840 ft 482 kts 144°
2026-05-06 19:21 28.63265 49.43001 26176 ft 484 kts 142°
2026-05-06 19:22 28.60954 49.45825 26508 ft 492 kts 135°
2026-05-06 19:22 28.58936 49.49013 26853 ft 498 kts 130°
2026-05-06 19:22 28.57031 49.52346 27208 ft 502 kts 128°
2026-05-06 19:22 28.55216 49.55695 27553 ft 506 kts 127°
2026-05-06 19:23 28.53375 49.59181 27916 ft 509 kts 127°
2026-05-06 19:23 28.51584 49.62597 28259 ft 511 kts 127°
2026-05-06 19:23 28.49762 49.66069 28674 ft 510 kts 127°
2026-05-06 19:23 28.47940 49.69525 29047 ft 510 kts 127°
2026-05-06 19:24 28.46108 49.72979 29423 ft 509 kts 127°
2026-05-06 19:24 28.44270 49.76422 29807 ft 508 kts 128°
2026-05-06 19:24 28.42215 49.79639 30142 ft 499 kts 137°
2026-05-06 19:24 28.39798 49.82409 30464 ft 488 kts 147°
2026-05-06 19:25 28.37128 49.84755 30773 ft 483 kts 151°
2026-05-06 19:25 28.34385 49.86959 31102 ft 482 kts 153°
2026-05-06 19:25 28.31609 49.89086 31436 ft 481 kts 154°
2026-05-06 19:25 28.28816 49.91179 31783 ft 480 kts 155°
2026-05-06 19:26 28.26061 49.93234 32123 ft 480 kts 155°
2026-05-06 19:26 28.23274 49.95317 32471 ft 479 kts 155°
2026-05-06 19:26 28.20495 49.97405 32825 ft 478 kts 155°
2026-05-06 19:26 28.17722 49.99496 33155 ft 478 kts 155°
2026-05-06 19:27 28.14954 50.01589 33517 ft 478 kts 155°
2026-05-06 19:27 28.12188 50.03683 33881 ft 478 kts 156°
2026-05-06 19:27 28.09413 50.05785 34200 ft 478 kts 156°
2026-05-06 19:27 28.06651 50.07877 34514 ft 477 kts 156°
2026-05-06 19:28 28.03891 50.09966 34823 ft 476 kts 156°
2026-05-06 19:28 27.98404 50.14114 34874 ft 475 kts 156°
2026-05-06 19:29 27.92895 50.18267 34860 ft 476 kts 156°
2026-05-06 19:29 27.87409 50.22399 34864 ft 476 kts 155°
2026-05-06 19:30 27.81893 50.26551 34852 ft 476 kts 155°
2026-05-06 19:30 27.76376 50.30697 34865 ft 476 kts 155°
2026-05-06 19:31 27.70856 50.34842 34860 ft 476 kts 155°
2026-05-06 19:31 27.62560 50.41063 34857 ft 477 kts 155°
2026-05-06 19:32 27.57080 50.45239 34861 ft 479 kts 154°
2026-05-06 19:32 27.51573 50.49471 34862 ft 479 kts 154°
2026-05-06 19:33 27.46063 50.53701 34854 ft 479 kts 154°
2026-05-06 19:33 27.40544 50.57924 34858 ft 479 kts 154°
2026-05-06 19:34 27.35028 50.62137 34852 ft 479 kts 154°
2026-05-06 19:34 27.29512 50.66344 34850 ft 479 kts 154°
2026-05-06 19:35 27.23984 50.70553 34848 ft 481 kts 154°
2026-05-06 19:35 27.18477 50.74743 34848 ft 481 kts 154°
2026-05-06 19:36 27.13194 50.79465 34846 ft 492 kts 144°
2026-05-06 19:36 27.08272 50.84855 34840 ft 494 kts 142°
2026-05-06 19:37 27.03431 50.90361 34840 ft 495 kts 142°
2026-05-06 19:37 26.98980 50.96376 34844 ft 507 kts 131°
2026-05-06 19:38 26.95160 51.02998 34840 ft 510 kts 128°
2026-05-06 19:38 26.91433 51.09778 34839 ft 511 kts 128°
2026-05-06 19:39 26.87815 51.16655 34837 ft 517 kts 121°
2026-05-06 19:39 26.85196 51.24220 34838 ft 522 kts 115°
2026-05-06 19:40 26.82862 51.31945 34837 ft 523 kts 113°
2026-05-06 19:40 26.80580 51.39694 34819 ft 524 kts 113°
2026-05-06 19:41 26.78288 51.47397 34835 ft 524 kts 113°
2026-05-06 19:41 26.75962 51.55139 34828 ft 524 kts 114°
2026-05-06 19:42 26.73624 51.62873 34829 ft 525 kts 113°
2026-05-06 19:42 26.71296 51.70609 34829 ft 525 kts 113°
2026-05-06 19:43 26.68975 51.78352 34817 ft 525 kts 113°
2026-05-06 19:43 26.66649 51.86099 34826 ft 525 kts 113°
2026-05-06 19:44 26.64278 51.93820 34823 ft 524 kts 114°
2026-05-06 19:44 26.61787 52.01482 34823 ft 524 kts 115°
2026-05-06 19:45 26.59268 52.09143 34823 ft 524 kts 115°
2026-05-06 19:45 26.56772 52.16749 34810 ft 524 kts 114°
2026-05-06 19:46 26.54272 52.24383 34823 ft 523 kts 114°
2026-05-06 19:46 26.51768 52.32020 34820 ft 522 kts 114°
2026-05-06 19:47 26.49264 52.39642 34823 ft 522 kts 114°
2026-05-06 19:47 26.46775 52.47198 34823 ft 522 kts 114°
2026-05-06 19:48 26.44262 52.54813 34814 ft 522 kts 114°
2026-05-06 19:48 26.41754 52.62396 34823 ft 520 kts 114°
2026-05-06 19:49 26.39243 52.69976 34823 ft 520 kts 114°
2026-05-06 19:49 26.36733 52.77539 34823 ft 520 kts 114°
2026-05-06 19:50 26.34216 52.85103 34818 ft 521 kts 114°
2026-05-06 19:50 26.31702 52.92633 34808 ft 521 kts 114°
2026-05-06 19:51 26.29170 53.00207 34816 ft 519 kts 114°
2026-05-06 19:51 26.26644 53.07747 34813 ft 520 kts 114°
2026-05-06 19:52 26.24112 53.15288 34811 ft 520 kts 114°
2026-05-06 19:52 26.21585 53.22798 34811 ft 520 kts 114°
2026-05-06 19:53 26.19044 53.30339 34806 ft 520 kts 114°
2026-05-06 19:53 26.16332 53.37769 34798 ft 516 kts 117°
2026-05-06 19:54 26.13353 53.45034 34795 ft 515 kts 118°
2026-05-06 19:54 26.10342 53.52278 34803 ft 515 kts 118°
2026-05-06 19:55 26.07358 53.59537 34795 ft 515 kts 118°
2026-05-06 19:55 26.04405 53.66767 34792 ft 516 kts 118°
2026-05-06 19:56 26.01446 53.74016 34795 ft 516 kts 118°
2026-05-06 19:56 25.98779 53.81445 34795 ft 518 kts 113°
2026-05-06 19:57 25.96403 53.89021 34797 ft 519 kts 112°
2026-05-06 19:57 25.94037 53.96593 34799 ft 519 kts 112°
2026-05-06 19:58 25.91622 54.04152 34796 ft 519 kts 112°
2026-05-06 19:58 25.89187 54.11680 34797 ft 517 kts 112°
2026-05-06 19:59 25.86761 54.19147 34793 ft 517 kts 113°
2026-05-06 19:59 25.84318 54.26655 34796 ft 517 kts 112°
2026-05-06 20:00 25.81871 54.34166 34801 ft 517 kts 113°
2026-05-06 20:00 25.79418 54.41680 34793 ft 517 kts 113°
2026-05-06 20:01 25.76962 54.49190 34790 ft 517 kts 112°
2026-05-06 20:01 25.74922 54.55417 34794 ft 516 kts 112°
2026-05-06 20:02 25.72462 54.62913 34793 ft 516 kts 112°
2026-05-06 20:02 25.69999 54.70400 34799 ft 516 kts 112°
2026-05-06 20:03 25.67532 54.77886 34792 ft 516 kts 112°
2026-05-06 20:03 25.65079 54.85318 34793 ft 517 kts 113°
2026-05-06 20:04 25.62602 54.92803 34789 ft 517 kts 112°
2026-05-06 20:04 25.60130 55.00263 34789 ft 516 kts 112°
2026-05-06 20:05 25.57651 55.07727 34788 ft 516 kts 112°
2026-05-06 20:05 25.55172 55.15176 34787 ft 516 kts 112°
2026-05-06 20:06 25.52685 55.22635 34789 ft 515 kts 112°
2026-05-06 20:06 25.50199 55.30079 34790 ft 516 kts 112°
2026-05-06 20:07 25.47708 55.37522 34795 ft 515 kts 112°
2026-05-06 20:07 25.45222 55.44935 34799 ft 514 kts 112°
2026-05-06 20:08 25.42747 55.52304 34802 ft 514 kts 112°
2026-05-06 20:08 25.40252 55.59714 34800 ft 514 kts 112°
2026-05-06 20:09 25.37753 55.67124 34799 ft 514 kts 112°
2026-05-06 20:09 25.35249 55.74537 34788 ft 514 kts 112°
2026-05-06 20:10 25.32743 55.81940 34798 ft 513 kts 112°
2026-05-06 20:10 25.30241 55.89317 34797 ft 512 kts 112°
2026-05-06 20:11 25.27734 55.96693 34799 ft 512 kts 112°
2026-05-06 20:11 25.25242 56.04013 34794 ft 512 kts 113°
2026-05-06 20:12 25.22725 56.11384 34794 ft 512 kts 113°
2026-05-06 20:12 25.20202 56.18753 34787 ft 512 kts 113°
2026-05-06 20:13 25.17700 56.26062 34801 ft 511 kts 113°
2026-05-06 20:13 25.15183 56.33402 34799 ft 511 kts 113°
2026-05-06 20:14 25.12662 56.40743 34802 ft 511 kts 113°
2026-05-06 20:14 25.10138 56.48079 34800 ft 511 kts 113°
2026-05-06 20:15 25.07607 56.55356 34793 ft 511 kts 114°
2026-05-06 20:15 25.04936 56.62627 34789 ft 511 kts 114°
2026-05-06 20:16 25.02229 56.69871 34780 ft 510 kts 114°
2026-05-06 20:16 24.99527 56.77113 34779 ft 509 kts 114°
2026-05-06 20:17 24.96856 56.84290 34784 ft 509 kts 114°
2026-05-06 20:17 24.94166 56.91516 34782 ft 510 kts 114°
2026-05-06 20:18 24.91468 56.98752 34786 ft 510 kts 114°
2026-05-06 20:18 24.88768 57.05979 34787 ft 509 kts 114°
2026-05-06 20:19 24.86074 57.13177 34785 ft 508 kts 114°
2026-05-06 20:19 24.83401 57.20308 34789 ft 508 kts 114°
2026-05-06 20:20 24.80694 57.27515 34780 ft 508 kts 114°
2026-05-06 20:20 24.78017 57.34631 34783 ft 508 kts 114°
2026-05-06 20:21 24.75309 57.41817 34779 ft 508 kts 114°
2026-05-06 20:21 24.72596 57.49003 34783 ft 507 kts 114°
2026-05-06 20:22 24.69890 57.56162 34781 ft 507 kts 114°
2026-05-06 20:22 24.67179 57.63321 34783 ft 507 kts 114°
2026-05-06 20:23 24.64468 57.70467 34783 ft 507 kts 114°
2026-05-06 20:23 24.61750 57.77617 34778 ft 507 kts 114°
2026-05-06 20:24 24.59029 57.84765 34779 ft 507 kts 114°
2026-05-06 20:24 24.56324 57.91858 34780 ft 507 kts 114°
2026-05-06 20:25 24.53596 57.99001 34775 ft 507 kts 114°
2026-05-06 20:25 24.50862 58.06144 34771 ft 507 kts 114°
2026-05-06 20:26 24.48128 58.13278 34776 ft 507 kts 114°
2026-05-06 20:26 24.45383 58.20431 34774 ft 507 kts 114°
2026-05-06 20:27 24.42657 58.27520 34770 ft 507 kts 114°
2026-05-06 20:27 24.39908 58.34659 34765 ft 507 kts 114°
2026-05-06 20:28 24.37161 58.41781 34766 ft 506 kts 114°
2026-05-06 20:28 24.34417 58.48880 34770 ft 506 kts 114°
2026-05-06 20:29 24.31665 58.55991 34762 ft 506 kts 114°
2026-05-06 20:29 24.28927 58.63052 34767 ft 506 kts 114°
2026-05-06 20:30 24.24791 58.73701 34765 ft 506 kts 114°
2026-05-06 20:31 24.22027 58.80803 34761 ft 505 kts 114°
2026-05-06 20:31 24.19265 58.87888 34762 ft 505 kts 115°
2026-05-06 20:32 24.16505 58.94956 34766 ft 505 kts 115°
2026-05-06 20:32 24.13739 59.02028 34757 ft 505 kts 115°
2026-05-06 20:33 24.10968 59.09102 34758 ft 505 kts 114°
2026-05-06 20:33 24.08216 59.16116 34764 ft 505 kts 115°
2026-05-06 20:34 24.05441 59.23179 34758 ft 505 kts 115°
2026-05-06 20:34 24.02665 59.30230 34766 ft 504 kts 115°
2026-05-06 20:35 23.99943 59.37291 34763 ft 504 kts 113°
2026-05-06 20:35 23.97315 59.44406 34765 ft 504 kts 113°
2026-05-06 20:36 23.94694 59.51534 34766 ft 504 kts 113°
2026-05-06 20:36 23.92061 59.58648 34762 ft 504 kts 113°
2026-05-06 20:37 23.89419 59.65753 34766 ft 504 kts 113°
2026-05-06 20:37 23.86774 59.72847 34768 ft 504 kts 113°
2026-05-06 20:38 23.84126 59.79939 34766 ft 504 kts 113°
2026-05-06 20:38 23.81495 59.86981 34769 ft 503 kts 113°
2026-05-06 20:39 23.78841 59.94077 34764 ft 504 kts 113°
2026-05-06 20:39 23.76185 60.01168 34769 ft 504 kts 113°
2026-05-06 20:40 23.73543 60.08208 34770 ft 504 kts 113°
2026-05-06 20:40 23.70878 60.15297 34765 ft 504 kts 113°
2026-05-06 20:41 23.68218 60.22364 34771 ft 503 kts 113°
2026-05-06 20:41 23.65555 60.29425 34771 ft 503 kts 113°
2026-05-06 20:42 23.62888 60.36482 34768 ft 503 kts 113°
2026-05-06 20:42 23.60232 60.43496 34769 ft 503 kts 113°
2026-05-06 20:43 23.57558 60.50546 34771 ft 503 kts 113°
2026-05-06 20:43 23.54878 60.57609 34771 ft 504 kts 113°
2026-05-06 20:44 23.52196 60.64664 34773 ft 503 kts 113°
2026-05-06 20:44 23.49519 60.71698 34773 ft 502 kts 113°
2026-05-06 20:45 23.46856 60.78680 34772 ft 503 kts 113°
2026-05-06 20:45 23.44168 60.85719 34771 ft 503 kts 113°
2026-05-06 20:46 23.41473 60.92765 34776 ft 503 kts 113°
2026-05-06 20:46 23.38773 60.99811 34773 ft 503 kts 113°
2026-05-06 20:47 23.36075 61.06843 34775 ft 504 kts 113°
2026-05-06 20:47 23.33371 61.13880 34776 ft 503 kts 113°
2026-05-06 20:48 23.31519 61.21138 34776 ft 502 kts 98°
2026-05-06 20:48 23.30674 61.28685 34773 ft 502 kts 95°
2026-05-06 20:49 23.30026 61.36248 34779 ft 502 kts 94°
2026-05-06 20:49 23.29391 61.43835 34777 ft 503 kts 95°
2026-05-06 20:50 23.28842 61.50137 34771 ft 503 kts 95°
2026-05-06 20:50 23.28053 61.58950 34774 ft 503 kts 95°
2026-05-06 20:51 23.27366 61.66524 34778 ft 503 kts 95°
2026-05-06 20:51 23.26792 61.72821 34777 ft 503 kts 95°
2026-05-06 20:52 23.26099 61.80396 34772 ft 503 kts 95°
2026-05-06 20:52 23.25402 61.87985 34775 ft 503 kts 95°
2026-05-06 20:53 23.24702 61.95572 34778 ft 503 kts 95°
2026-05-06 20:53 23.24002 62.03107 34776 ft 502 kts 95°
2026-05-06 20:54 23.23296 62.10671 34775 ft 502 kts 95°
2026-05-06 20:54 23.22586 62.18235 34774 ft 502 kts 95°
2026-05-06 20:55 23.21875 62.25783 34775 ft 502 kts 95°
2026-05-06 20:55 23.21158 62.33342 34774 ft 503 kts 95°
2026-05-06 20:56 23.20438 62.40900 34775 ft 503 kts 95°
2026-05-06 20:56 23.19718 62.48418 34774 ft 503 kts 95°
2026-05-06 20:57 23.18990 62.55976 34777 ft 503 kts 95°
2026-05-06 20:57 23.18258 62.63547 34777 ft 503 kts 95°
2026-05-06 20:58 23.17522 62.71114 34778 ft 503 kts 95°
2026-05-06 20:58 23.16782 62.78686 34777 ft 503 kts 95°
2026-05-06 20:59 23.16039 62.86257 34780 ft 504 kts 95°
2026-05-06 20:59 23.15295 62.93788 34777 ft 504 kts 95°
2026-05-06 21:00 23.14545 63.01357 34780 ft 503 kts 95°
2026-05-06 21:00 23.13792 63.08905 34782 ft 502 kts 95°
2026-05-06 21:01 23.13036 63.16456 34783 ft 503 kts 95°
2026-05-06 21:01 23.12276 63.24008 34779 ft 503 kts 95°
2026-05-06 21:02 23.11512 63.31560 34782 ft 503 kts 95°
2026-05-06 21:02 23.10748 63.39076 34782 ft 503 kts 95°
2026-05-06 21:03 23.09978 63.46625 34783 ft 503 kts 95°
2026-05-06 21:03 23.09202 63.54183 34782 ft 503 kts 95°
2026-05-06 21:04 23.08423 63.61739 34782 ft 503 kts 95°
2026-05-06 21:04 23.07641 63.69293 34782 ft 503 kts 95°
2026-05-06 21:05 23.06860 63.76793 34786 ft 503 kts 95°
2026-05-06 21:05 23.06027 63.84349 34783 ft 504 kts 99°
2026-05-06 21:06 23.03967 63.91624 34785 ft 505 kts 110°
2026-05-06 21:06 23.01372 63.98720 34785 ft 505 kts 112°
2026-05-06 21:07 22.98670 64.05776 34788 ft 506 kts 112°
2026-05-06 21:07 22.95988 64.12795 34780 ft 507 kts 112°
2026-05-06 21:08 22.93302 64.19873 34786 ft 507 kts 112°
2026-05-06 21:08 22.90622 64.26951 34784 ft 507 kts 112°
2026-05-06 21:09 22.87940 64.34027 34780 ft 507 kts 112°
2026-05-06 21:09 22.85250 64.41112 34778 ft 508 kts 112°
2026-05-06 21:10 22.82575 64.48141 34780 ft 507 kts 112°
2026-05-06 21:10 22.79888 64.55195 34786 ft 505 kts 112°
2026-05-06 21:11 22.77201 64.62234 34778 ft 505 kts 112°
2026-05-06 21:11 22.74514 64.69264 34782 ft 505 kts 112°
2026-05-06 21:12 22.71822 64.76296 34783 ft 505 kts 112°
2026-05-06 21:12 22.69125 64.83330 34780 ft 505 kts 112°
2026-05-06 21:13 22.66446 64.90307 34781 ft 505 kts 112°
2026-05-06 21:13 22.63749 64.97322 34787 ft 505 kts 112°
2026-05-06 21:14 22.61044 65.04344 34782 ft 505 kts 112°
2026-05-06 21:14 22.58339 65.11357 34784 ft 505 kts 112°
2026-05-06 21:15 22.55628 65.18374 34788 ft 505 kts 112°
2026-05-06 21:15 22.52932 65.25342 34789 ft 505 kts 112°
2026-05-06 21:16 22.50220 65.32343 34795 ft 505 kts 112°
2026-05-06 21:16 22.47494 65.39366 34789 ft 506 kts 112°
2026-05-06 21:17 22.44763 65.46391 34781 ft 507 kts 112°
2026-05-06 21:17 22.42027 65.53421 34779 ft 507 kts 112°
2026-05-06 21:18 22.39292 65.60436 34787 ft 505 kts 112°
2026-05-06 21:18 22.36579 65.67386 34789 ft 505 kts 112°
2026-05-06 21:19 22.33840 65.74390 34786 ft 505 kts 112°
2026-05-06 21:19 22.31100 65.81388 34788 ft 505 kts 112°
2026-05-06 21:20 22.28354 65.88391 34788 ft 505 kts 112°
2026-05-06 21:20 22.25625 65.95339 34790 ft 506 kts 112°
2026-05-06 21:21 22.22872 66.02338 34793 ft 507 kts 112°
2026-05-06 21:21 22.20114 66.09340 34787 ft 507 kts 112°
2026-05-06 21:22 22.17359 66.16322 34793 ft 505 kts 112°
2026-05-06 21:22 22.14607 66.23290 34795 ft 505 kts 112°
2026-05-06 21:23 22.11851 66.30254 34789 ft 505 kts 113°
2026-05-06 21:23 22.09084 66.37238 34790 ft 506 kts 113°
2026-05-06 21:24 22.06318 66.44209 34792 ft 506 kts 113°
2026-05-06 21:24 22.03566 66.51135 34792 ft 506 kts 113°
2026-05-06 21:25 22.00793 66.58106 34795 ft 506 kts 113°
2026-05-06 21:25 21.98010 66.65091 34790 ft 506 kts 113°
2026-05-06 21:26 21.95226 66.72069 34794 ft 506 kts 113°
2026-05-06 21:26 21.92448 66.79021 34792 ft 505 kts 113°
2026-05-06 21:27 21.89679 66.85941 34793 ft 505 kts 113°
2026-05-06 21:27 21.86893 66.92893 34794 ft 506 kts 113°
2026-05-06 21:28 21.84098 66.99859 34797 ft 506 kts 113°
2026-05-06 21:28 21.81304 67.06812 34791 ft 506 kts 113°
2026-05-06 21:29 21.78525 67.13716 34789 ft 506 kts 113°
2026-05-06 21:29 21.75725 67.20663 34785 ft 506 kts 113°
2026-05-06 21:30 21.72920 67.27614 34792 ft 506 kts 113°
2026-05-06 21:30 21.70113 67.34558 34789 ft 506 kts 113°
2026-05-06 21:31 21.67299 67.41510 34784 ft 506 kts 113°
2026-05-06 21:31 21.64489 67.48444 34784 ft 506 kts 114°
2026-05-06 21:32 21.61675 67.55377 34784 ft 506 kts 114°
2026-05-06 21:32 21.57442 67.65789 34783 ft 507 kts 114°
2026-05-06 21:33 21.54629 67.72694 34781 ft 507 kts 114°
2026-05-06 21:33 21.51796 67.79639 34779 ft 506 kts 114°
2026-05-06 21:34 21.48966 67.86568 34781 ft 506 kts 114°
2026-05-06 21:34 21.46136 67.93487 34783 ft 506 kts 114°
2026-05-06 21:35 21.43299 68.00414 34782 ft 506 kts 114°
2026-05-06 21:35 21.40480 68.07286 34782 ft 506 kts 114°
2026-05-06 21:36 21.37635 68.14212 34778 ft 506 kts 114°
2026-05-06 21:36 21.34792 68.21123 34782 ft 506 kts 114°
2026-05-06 21:37 21.31943 68.28041 34779 ft 507 kts 114°
2026-05-06 21:37 21.29092 68.34955 34779 ft 506 kts 114°
2026-05-06 21:38 21.26262 68.41805 34779 ft 506 kts 114°
2026-05-06 21:38 21.23412 68.48698 34778 ft 506 kts 114°
2026-05-06 21:39 21.20557 68.55591 34783 ft 506 kts 114°
2026-05-06 21:39 21.17695 68.62491 34779 ft 507 kts 114°
2026-05-06 21:40 21.15312 68.68231 34785 ft 507 kts 114°
2026-05-06 21:40 21.11977 68.76251 34781 ft 507 kts 114°
2026-05-06 21:41 21.09585 68.81997 34779 ft 507 kts 114°
2026-05-06 21:41 21.06711 68.88892 34782 ft 506 kts 114°
2026-05-06 21:42 21.03839 68.95770 34782 ft 506 kts 114°
2026-05-06 21:42 21.00967 69.02641 34783 ft 506 kts 114°
2026-05-06 21:43 20.98098 69.09516 34782 ft 506 kts 112°
2026-05-06 21:43 20.95795 69.16618 34781 ft 505 kts 108°
2026-05-06 21:44 20.93617 69.23784 34781 ft 506 kts 107°
2026-05-06 21:44 20.91464 69.30905 34782 ft 507 kts 107°
2026-05-06 21:45 20.89293 69.38079 34778 ft 507 kts 107°
2026-05-06 21:45 20.87119 69.45257 34779 ft 507 kts 107°
2026-05-06 21:46 20.84942 69.52434 34781 ft 507 kts 108°
2026-05-06 21:46 20.82760 69.59613 34780 ft 508 kts 108°
2026-05-06 21:47 20.80572 69.66800 34772 ft 508 kts 108°
2026-05-06 21:47 20.78390 69.73957 34771 ft 508 kts 108°
2026-05-06 21:48 20.76196 69.81143 34768 ft 508 kts 108°
2026-05-06 21:48 20.73999 69.88324 34778 ft 508 kts 108°
2026-05-06 21:49 20.71809 69.95473 34772 ft 509 kts 108°
2026-05-06 21:49 20.69602 70.02663 34770 ft 509 kts 108°
2026-05-06 21:50 20.67395 70.09841 34773 ft 509 kts 108°
2026-05-06 21:50 20.65194 70.16989 34769 ft 509 kts 108°
2026-05-06 21:51 20.62981 70.24166 34763 ft 509 kts 108°
2026-05-06 21:51 20.60769 70.31327 34771 ft 507 kts 108°
2026-05-06 21:52 20.58557 70.38474 34774 ft 506 kts 108°
2026-05-06 21:52 20.56345 70.45611 34771 ft 506 kts 108°
2026-05-06 21:53 20.54138 70.52721 34773 ft 507 kts 108°
2026-05-06 21:53 20.51915 70.59869 34773 ft 507 kts 108°
2026-05-06 21:54 20.49687 70.67025 34757 ft 508 kts 108°
2026-05-06 21:54 20.47472 70.74126 34763 ft 508 kts 108°
2026-05-06 21:55 20.45239 70.81275 34762 ft 508 kts 108°
2026-05-06 21:55 20.43003 70.88420 34764 ft 508 kts 108°
2026-05-06 21:56 20.40757 70.95584 34758 ft 509 kts 108°
2026-05-06 21:56 20.38511 71.02739 34752 ft 508 kts 108°
2026-05-06 21:57 20.36268 71.09874 34757 ft 507 kts 109°
2026-05-06 21:57 20.34036 71.16960 34750 ft 507 kts 109°
2026-05-06 21:58 20.31787 71.24092 34763 ft 507 kts 109°
2026-05-06 21:58 20.29535 71.31221 34754 ft 507 kts 109°
2026-05-06 21:59 20.27282 71.38342 34750 ft 507 kts 109°
2026-05-06 21:59 20.25022 71.45475 34761 ft 507 kts 109°
2026-05-06 22:00 20.22777 71.52548 34759 ft 507 kts 109°
2026-05-06 22:00 20.19514 71.59145 34768 ft 504 kts 131°
2026-05-06 22:01 20.14789 71.64648 34576 ft 503 kts 135°
2026-05-06 22:01 20.12390 71.67370 34183 ft 503 kts 134°
2026-05-06 22:01 20.10004 71.70089 33781 ft 504 kts 134°
2026-05-06 22:02 20.07657 71.72774 33335 ft 505 kts 134°
2026-05-06 22:02 20.05259 71.75523 32878 ft 507 kts 134°
2026-05-06 22:02 20.02857 71.78279 32445 ft 509 kts 134°
2026-05-06 22:02 20.00446 71.81047 32011 ft 511 kts 134°
2026-05-06 22:03 19.98025 71.83826 31585 ft 513 kts 134°
2026-05-06 22:03 19.95598 71.86612 31162 ft 514 kts 134°
2026-05-06 22:03 19.93156 71.89414 30740 ft 516 kts 134°
2026-05-06 22:03 19.90710 71.92218 30337 ft 518 kts 134°
2026-05-06 22:04 19.88259 71.95029 29928 ft 520 kts 134°
2026-05-06 22:04 19.85799 71.97847 29467 ft 519 kts 133°
2026-05-06 22:04 19.83354 72.00647 28997 ft 515 kts 133°
2026-05-06 22:04 19.80919 72.03435 28533 ft 512 kts 133°
2026-05-06 22:05 19.78530 72.06169 28086 ft 509 kts 134°
2026-05-06 22:05 19.76024 72.08802 27631 ft 505 kts 138°
2026-05-06 22:05 19.73433 72.11303 27199 ft 502 kts 139°
2026-05-06 22:05 19.70829 72.13774 26752 ft 500 kts 139°
2026-05-06 22:06 19.68248 72.16219 26339 ft 497 kts 139°
2026-05-06 22:06 19.65674 72.18658 25919 ft 495 kts 139°
2026-05-06 22:06 19.63107 72.21091 25507 ft 498 kts 139°
2026-05-06 22:06 19.60500 72.23563 25102 ft 506 kts 139°
2026-05-06 22:07 19.57870 72.26057 24707 ft 507 kts 139°
2026-05-06 22:07 19.55246 72.28545 24305 ft 506 kts 139°
2026-05-06 22:07 19.52625 72.31029 23901 ft 504 kts 139°
2026-05-06 22:07 19.50021 72.33496 23526 ft 502 kts 139°
2026-05-06 22:08 19.47419 72.35961 23102 ft 499 kts 139°
2026-05-06 22:08 19.44867 72.38376 22648 ft 496 kts 139°
2026-05-06 22:08 19.42302 72.40804 22189 ft 492 kts 139°
2026-05-06 22:08 19.39762 72.43206 21741 ft 487 kts 139°
2026-05-06 22:09 19.37236 72.45594 21300 ft 482 kts 139°
2026-05-06 22:09 19.34747 72.47946 20865 ft 477 kts 139°
2026-05-06 22:09 19.32274 72.50282 20435 ft 473 kts 139°
2026-05-06 22:09 19.29859 72.52563 20007 ft 458 kts 139°
2026-05-06 22:10 19.27535 72.54757 19571 ft 436 kts 139°
2026-05-06 22:10 19.25326 72.56843 19152 ft 414 kts 139°
2026-05-06 22:10 19.23347 72.58961 18734 ft 396 kts 128°
2026-05-06 22:10 19.22041 72.61440 18336 ft 378 kts 108°
2026-05-06 22:11 19.21566 72.64074 17923 ft 362 kts 92°
2026-05-06 22:11 19.21492 72.66681 17458 ft 348 kts 89°
2026-05-06 22:11 19.21490 72.69200 16998 ft 337 kts 89°
2026-05-06 22:11 19.21493 72.71642 16545 ft 327 kts 89°
2026-05-06 22:12 19.21491 72.74016 16096 ft 318 kts 90°
2026-05-06 22:12 19.21484 72.76321 15657 ft 310 kts 90°
2026-05-06 22:12 19.21475 72.78582 15231 ft 305 kts 91°
2026-05-06 22:12 19.21463 72.80828 14812 ft 305 kts 91°
2026-05-06 22:13 19.21450 72.83068 14406 ft 304 kts 91°
2026-05-06 22:13 19.21435 72.85269 13994 ft 302 kts 92°
2026-05-06 22:13 19.21421 72.87488 13588 ft 301 kts 92°
2026-05-06 22:13 19.21406 72.89699 13141 ft 300 kts 92°
2026-05-06 22:14 19.21390 72.91909 12688 ft 298 kts 92°
2026-05-06 22:14 19.21374 72.94101 12239 ft 297 kts 92°
2026-05-06 22:14 19.21358 72.96281 11802 ft 296 kts 91°
2026-05-06 22:14 19.21342 72.98453 11365 ft 294 kts 91°
2026-05-06 22:15 19.21326 73.00578 10931 ft 289 kts 91°
2026-05-06 22:15 19.21311 73.02670 10503 ft 280 kts 91°
2026-05-06 22:15 19.21295 73.04706 10081 ft 273 kts 91°
2026-05-06 22:15 19.21280 73.06696 9665 ft 267 kts 91°
2026-05-06 22:16 19.21264 73.08638 9206 ft 261 kts 91°
2026-05-06 22:16 19.21249 73.10538 8774 ft 255 kts 91°
2026-05-06 22:16 19.21234 73.12368 8364 ft 243 kts 91°
2026-05-06 22:16 19.21227 73.14125 7929 ft 235 kts 90°
2026-05-06 22:17 19.21236 73.15791 7611 ft 223 kts 89°
2026-05-06 22:17 19.21251 73.17416 7309 ft 213 kts 89°
2026-05-06 22:17 19.21265 73.18962 7028 ft 209 kts 89°
2026-05-06 22:17 19.21258 73.20479 6749 ft 209 kts 95°
2026-05-06 22:18 19.20707 73.21869 6464 ft 208 kts 132°
2026-05-06 22:18 19.19492 73.22643 6180 ft 206 kts 169°
2026-05-06 22:18 19.18070 73.22782 5911 ft 206 kts 179°
2026-05-06 22:18 19.16634 73.22824 5626 ft 207 kts 180°
2026-05-06 22:19 19.15192 73.22852 5330 ft 207 kts 180°
2026-05-06 22:19 19.13749 73.22877 5051 ft 207 kts 180°
2026-05-06 22:19 19.12302 73.22897 4819 ft 208 kts 180°
2026-05-06 22:19 19.10867 73.22800 4760 ft 207 kts 201°
2026-05-06 22:20 19.09827 73.21844 4762 ft 199 kts 245°
2026-05-06 22:20 19.09444 73.20469 4767 ft 198 kts 264°
2026-05-06 22:20 19.09358 73.19018 4779 ft 197 kts 271°
2026-05-06 22:20 19.09337 73.17567 4777 ft 198 kts 271°
2026-05-06 22:21 19.09314 73.16108 4778 ft 198 kts 271°
2026-05-06 22:21 19.09289 73.14652 4767 ft 198 kts 271°
2026-05-06 22:21 19.09266 73.13199 4624 ft 195 kts 271°
2026-05-06 22:21 19.09245 73.11796 4374 ft 188 kts 271°
2026-05-06 22:22 19.09225 73.10425 4086 ft 184 kts 272°
2026-05-06 22:22 19.09205 73.09080 3826 ft 180 kts 272°
2026-05-06 22:22 19.09185 73.07763 3581 ft 178 kts 272°
2026-05-06 22:22 19.09165 73.06468 3348 ft 175 kts 272°
2026-05-06 22:23 19.09147 73.05193 3134 ft 172 kts 272°
2026-05-06 22:23 19.09128 73.03951 2920 ft 169 kts 272°
2026-05-06 22:23 19.09110 73.02711 2701 ft 164 kts 272°
2026-05-06 22:23 19.09093 73.01521 2504 ft 159 kts 271°
2026-05-06 22:24 19.09075 73.00383 2309 ft 155 kts 271°
2026-05-06 22:24 19.09059 72.99270 2140 ft 148 kts 271°
2026-05-06 22:24 19.09043 72.98184 1937 ft 148 kts 271°
2026-05-06 22:24 19.09027 72.97100 1741 ft 145 kts 270°
2026-05-06 22:25 19.09011 72.96040 1559 ft 143 kts 271°
2026-05-06 22:25 19.08995 72.94992 1371 ft 142 kts 271°
2026-05-06 22:25 19.08980 72.93958 1184 ft 140 kts 271°
2026-05-06 22:25 19.08965 72.92929 1015 ft 140 kts 272°
2026-05-06 22:26 19.08950 72.91903 831 ft 139 kts 272°
2026-05-06 22:26 19.08935 72.90892 666 ft 141 kts 272°
2026-05-06 22:26 19.08919 72.89849 476 ft 141 kts 274°
2026-05-06 22:26 19.08905 72.88799 304 ft 144 kts 272°
2026-05-06 22:27 19.08889 72.87747 111 ft 142 kts 271°
2026-05-06 22:27 19.08879 72.86733 38 ft 130 kts 269°
2026-05-06 22:27 19.08859 72.85916 30 ft 78 kts 269°
2026-05-06 22:27 19.08857 72.85594 30 ft 33 kts 270°
2026-05-06 22:28 19.08892 72.85353 31 ft 33 kts 292°
2026-05-06 22:28 19.08991 72.85238 29 ft 13 kts 11°
2026-05-06 22:28 19.09021 72.85317 29 ft 16 kts 90°
2026-05-06 22:28 19.09024 72.85487 30 ft 25 kts 90°
2026-05-06 22:29 19.09027 72.85676 30 ft 26 kts 90°
2026-05-06 22:29 19.09029 72.85874 31 ft 27 kts 89°
2026-05-06 22:29 19.09031 72.86077 33 ft 28 kts 89°
2026-05-06 22:29 19.09035 72.86274 34 ft 20 kts 88°
2026-05-06 22:30 19.09105 72.86387 35 ft 19 kts 49°
2026-05-06 22:30 19.09194 72.86500 36 ft 20 kts 50°
2026-05-06 22:30 19.09292 72.86616 36 ft 22 kts 47°
2026-05-06 22:30 19.09398 72.86741 36 ft 24 kts 49°
2026-05-06 22:31 19.09509 72.86878 36 ft 25 kts 48°
2026-05-06 22:31 19.09569 72.86949 37 ft 11 kts 54°
2026-05-06 22:31 19.09549 72.87026 37 ft 8 kts 77°
2026-05-06 22:31 19.09570 72.87052 37 ft 7 kts 45°
2026-05-06 22:32 19.09609 72.87094 37 ft 9 kts 45°
2026-05-06 22:32 19.09655 72.87142 36 ft 8 kts 54°
2026-05-06 22:32 19.09640 72.87193 36 ft 8 kts 132°
2026-05-06 22:32 19.09603 72.87233 37 ft 4 kts 132°
2026-05-06 22:33 19.09602 72.87234 37 ft 1 kts 133°
2026-05-06 22:33 19.09601 72.87235 37 ft 0 kts 134°